When you browse on this site, cookies collect data to enhance your experience and personalize the content and advertising you see.
Visit our Privacy Policy to learn more. By continuing to use the site, you agree to this use of cookies and data.
  • In Portugal
  • List of Countries
  • For 7 days
  • Water Temperature
  • Satellite Maps
  • Weather Map
  • Weather Widgets
  • user-avatar
    Login

    Hourly Weather Marmaris

    Today, 20 May, Monday

    Time Temperature Precipitation Wind Pressure Humidity
    00:00 +22°C° 0 mm 1 mps 756 mmHg 70%
    01:00 +21°C° 0 mm 2 mps 756 mmHg 70%
    02:00 +21°C° 0 mm 2 mps 756 mmHg 70%
    03:00 +21°C° 0 mm 2 mps 756 mmHg 70%
    04:00 +21°C° 0 mm 2 mps 756 mmHg 69%
    05:00 +22°C° 0 mm 1 mps 756 mmHg 69%
    06:00 +24°C° 0 mm 2 mps 756 mmHg 61%
    07:00 +25°C° 0 mm 2 mps 756 mmHg 53%
    08:00 +27°C° 0 mm 2 mps 756 mmHg 45%
    09:00 +28°C° 0 mm 2 mps 756 mmHg 39%
    10:00 +30°C° 0 mm 2 mps 757 mmHg 33%
    11:00 +31°C° 0 mm 3 mps 757 mmHg 28%
    12:00 +31°C° 0 mm 3 mps 757 mmHg 28%
    13:00 +31°C° 0 mm 2 mps 757 mmHg 28%
    14:00 +31°C° 0 mm 2 mps 757 mmHg 28%
    15:00 +31°C° 0 mm 2 mps 757 mmHg 31%
    16:00 +30°C° 0 mm 2 mps 757 mmHg 33%
    17:00 +29°C° 0 mm 1 mps 757 mmHg 36%
    18:00 +28°C° 0 mm 1 mps 757 mmHg 42%
    19:00 +26°C° 0 mm 1 mps 757 mmHg 49%
    20:00 +24°C° 0 mm 1 mps 757 mmHg 55%
    21:00 +24°C° 0 mm 1 mps 757 mmHg 56%
    22:00 +23°C° 0 mm 1 mps 757 mmHg 56%
    23:00 +23°C° 0 mm 1 mps 758 mmHg 56%

    Tomorrow, 21 May, Tuesday

    Time Temperature Precipitation Wind Pressure Humidity
    00:00 +23°C° 0 mm 1 mps 758 mmHg 52%
    01:00 +23°C° 0 mm 1 mps 758 mmHg 48%
    02:00 +23°C° 0 mm 1 mps 758 mmHg 44%
    03:00 +23°C° 0 mm 1 mps 757 mmHg 41%
    04:00 +23°C° 0 mm 2 mps 757 mmHg 39%
    05:00 +23°C° 0 mm 2 mps 757 mmHg 36%
    06:00 +25°C° 0 mm 1 mps 758 mmHg 33%
    07:00 +27°C° 0 mm 1 mps 758 mmHg 30%
    08:00 +28°C° 0 mm 0 mps 758 mmHg 27%
    09:00 +31°C° 0 mm 1 mps 758 mmHg 27%
    10:00 +32°C° 0 mm 1 mps 758 mmHg 27%
    11:00 +34°C° 0 mm 2 mps 758 mmHg 27%
    12:00 +32°C° 0 mm 2 mps 758 mmHg 29%
    13:00 +32°C° 0 mm 2 mps 758 mmHg 31%
    14:00 +31°C° 0 mm 2 mps 758 mmHg 33%
    15:00 +31°C° 0 mm 2 mps 758 mmHg 34%
    16:00 +31°C° 0 mm 2 mps 757 mmHg 35%
    17:00 +30°C° 0 mm 2 mps 757 mmHg 36%
    18:00 +29°C° 0 mm 1 mps 757 mmHg 41%
    19:00 +27°C° 0 mm 1 mps 758 mmHg 46%
    20:00 +25°C° 0 mm 1 mps 758 mmHg 50%
    21:00 +25°C° 0 mm 1 mps 758 mmHg 51%
    22:00 +25°C° 0 mm 2 mps 758 mmHg 51%
    23:00 +24°C° 0 mm 2 mps 758 mmHg 52%

    Day after tomorrow, 22 May, Wednesday

    Time Temperature Precipitation Wind Pressure Humidity
    00:00 +24°C° 0 mm 2 mps 758 mmHg 51%
    01:00 +24°C° 0 mm 2 mps 758 mmHg 51%
    02:00 +24°C° 0 mm 2 mps 758 mmHg 51%
    03:00 +23°C° 0 mm 2 mps 758 mmHg 51%
    04:00 +23°C° 0 mm 2 mps 757 mmHg 51%
    05:00 +23°C° 0 mm 2 mps 757 mmHg 51%
    06:00 +25°C° 0 mm 1 mps 757 mmHg 46%
    07:00 +27°C° 0 mm 1 mps 758 mmHg 41%
    08:00 +27°C° 0 mm 0 mps 758 mmHg 37%
    09:00 +30°C° 0 mm 1 mps 758 mmHg 33%
    10:00 +31°C° 0 mm 2 mps 758 mmHg 30%
    11:00 +32°C° 0 mm 2 mps 758 mmHg 26%
    12:00 +34°C° 0 mm 2 mps 758 mmHg 25%
    13:00 +34°C° 0 mm 3 mps 758 mmHg 23%
    14:00 +34°C° 0 mm 3 mps 757 mmHg 22%
    15:00 +34°C° 0 mm 3 mps 757 mmHg 23%
    16:00 +32°C° 0 mm 2 mps 757 mmHg 24%
    17:00 +31°C° 0 mm 2 mps 757 mmHg 26%
    18:00 +29°C° 0 mm 2 mps 757 mmHg 31%
    19:00 +27°C° 0 mm 1 mps 757 mmHg 36%
    20:00 +25°C° 0 mm 1 mps 757 mmHg 40%
    21:00 +25°C° 0 mm 1 mps 757 mmHg 40%
    22:00 +25°C° 0 mm 1 mps 757 mmHg 39%
    23:00 +25°C° 0 mm 1 mps 757 mmHg 38%

    23 May, Thursday

    Time Temperature Precipitation Wind Pressure Humidity
    00:00 +25°C° 0 mm 1 mps 757 mmHg 37%
    01:00 +25°C° 0 mm 2 mps 756 mmHg 36%
    02:00 +25°C° 0 mm 2 mps 756 mmHg 35%
    03:00 +25°C° 0 mm 2 mps 756 mmHg 34%
    04:00 +25°C° 0 mm 2 mps 756 mmHg 33%
    05:00 +25°C° 0 mm 2 mps 755 mmHg 32%
    06:00 +27°C° 0 mm 1 mps 755 mmHg 30%
    07:00 +29°C° 0 mm 1 mps 755 mmHg 28%
    08:00 +30°C° 0 mm 1 mps 755 mmHg 26%
    09:00 +32°C° 0 mm 2 mps 756 mmHg 24%
    10:00 +34°C° 0 mm 2 mps 756 mmHg 22%
    11:00 +35°C° 0 mm 3 mps 756 mmHg 20%
    12:00 +35°C° 0 mm 2 mps 756 mmHg 20%
    13:00 +35°C° 0 mm 2 mps 755 mmHg 20%
    14:00 +34°C° 0 mm 1 mps 755 mmHg 21%
    15:00 +35°C° 0 mm 2 mps 755 mmHg 22%
    16:00 +34°C° 0 mm 3 mps 754 mmHg 24%
    17:00 +33°C° 0 mm 3 mps 753 mmHg 25%
    18:00 +31°C° 0 mm 2 mps 753 mmHg 28%
    19:00 +29°C° 0 mm 2 mps 753 mmHg 31%
    20:00 +27°C° 0 mm 1 mps 753 mmHg 34%
    21:00 +27°C° 0 mm 1 mps 753 mmHg 34%
    22:00 +27°C° 0 mm 2 mps 753 mmHg 33%
    23:00 +27°C° 0 mm 2 mps 753 mmHg 33%

    24 May, Friday

    Time Temperature Precipitation Wind Pressure Humidity
    00:00 +26°C° 0 mm 2 mps 752 mmHg 37%
    01:00 +25°C° 0 mm 1 mps 752 mmHg 41%
    02:00 +25°C° 0 mm 1 mps 752 mmHg 45%
    03:00 +25°C° 0 mm 1 mps 752 mmHg 47%
    04:00 +24°C° 0 mm 1 mps 752 mmHg 49%
    05:00 +24°C° 0 mm 2 mps 752 mmHg 51%
    06:00 +26°C° 0 mm 2 mps 752 mmHg 47%
    07:00 +28°C° 0 mm 1 mps 752 mmHg 44%
    08:00 +30°C° 0 mm 1 mps 752 mmHg 41%
    09:00 +31°C° 0.1 mm 2 mps 751 mmHg 37%
    10:00 +31°C° 0.1 mm 2 mps 751 mmHg 34%
    11:00 +33°C° 0.1 mm 3 mps 751 mmHg 31%
    12:00 +33°C° 0.2 mm 3 mps 750 mmHg 32%
    13:00 +33°C° 0.2 mm 4 mps 750 mmHg 33%
    14:00 +34°C° 0.2 mm 5 mps 750 mmHg 34%
    15:00 +32°C° 0 mm 4 mps 750 mmHg 40%
    16:00 +30°C° 0 mm 3 mps 750 mmHg 46%
    17:00 +29°C° 0 mm 3 mps 750 mmHg 52%
    18:00 +28°C° 0 mm 2 mps 751 mmHg 61%
    19:00 +26°C° 0 mm 1 mps 751 mmHg 69%
    20:00 +24°C° 0 mm 1 mps 751 mmHg 78%
    21:00 +24°C° 0 mm 1 mps 751 mmHg 79%
    22:00 +23°C° 0 mm 1 mps 752 mmHg 81%
    23:00 +23°C° 0 mm 1 mps 752 mmHg 82%

    25 May, Saturday

    Time Temperature Precipitation Wind Pressure Humidity
    00:00 +23°C° 0 mm 1 mps 752 mmHg 83%
    01:00 +21°C° 0 mm 2 mps 752 mmHg 84%
    02:00 +21°C° 0 mm 2 mps 752 mmHg 85%
    03:00 +20°C° 0 mm 2 mps 752 mmHg 85%
    04:00 +20°C° 0 mm 2 mps 752 mmHg 86%
    05:00 +20°C° 0 mm 2 mps 752 mmHg 86%
    06:00 +23°C° 0 mm 2 mps 752 mmHg 76%
    07:00 +25°C° 0 mm 2 mps 752 mmHg 67%
    08:00 +27°C° 0 mm 2 mps 753 mmHg 57%
    09:00 +28°C° 0 mm 2 mps 753 mmHg 51%
    10:00 +29°C° 0 mm 3 mps 753 mmHg 45%
    11:00 +30°C° 0 mm 3 mps 753 mmHg 40%
    12:00 +30°C° 0 mm 4 mps 753 mmHg 40%
    13:00 +30°C° 0 mm 4 mps 753 mmHg 40%
    14:00 +32°C° 0 mm 4 mps 753 mmHg 40%
    15:00 +30°C° 0 mm 4 mps 752 mmHg 41%
    16:00 +29°C° 0 mm 4 mps 752 mmHg 43%
    17:00 +29°C° 0 mm 4 mps 752 mmHg 45%
    18:00 +27°C° 0 mm 3 mps 753 mmHg 52%
    19:00 +25°C° 0 mm 3 mps 753 mmHg 58%
    20:00 +22°C° 0 mm 3 mps 753 mmHg 65%
    21:00 +22°C° 0 mm 3 mps 754 mmHg 65%
    22:00 +22°C° 0 mm 3 mps 754 mmHg 65%
    23:00 +21°C° 0 mm 3 mps 754 mmHg 65%
    Show more